User: anonymous   Login
Location: Dürabuch
(48.2640°N, 11.2185°E)
Time: 19:13:02
(UTC+00:00)
Language:

Cosmos 1408 - Orbit

View from above orbital plane
View from above orbital plane
View from above satellite
View from above satellite

Ground track
Ground track

The orbit data is extracted from the following two-line orbital elements,

1 13552U 82092A   24199.56373776  .00079988  00000-0  66689-3 0  9995
2 13552  82.5519 209.9527 0012364 199.9850 160.0929 15.69702798150242
Epoch (UTC): 17 July 2024 13:31:46
Eccentricity: 0.0012364
inclination: 82.5519°
perigee height: 351 km
apogee height: 368 km
right ascension of ascending node: 209.9527°
argument of perigee: 199.9850°
revolutions per day: 15.69702798
mean anomaly at epoch: 160.0929°
orbit number at epoch: 15024

The dashed part of the orbit path shows where the satellite is in the earth's shadow,  

DLR